When you browse on this site, cookies collect data to enhance your experience and personalize the content and advertising you see.
Visit our Privacy Policy to learn more. By continuing to use the site, you agree to this use of cookies and data.
  • In Hungary
  • List of Countries
  • For 7 days
  • Water Temperature
  • Weather Map
  • News
  • Weather Widgets
  • user-avatar
    Login

    Hourly Weather Ndjole

    Today, 14 December, Saturday

    Time Temperature Precipitation Wind Pressure Humidity
    00:00 +24°C° 0.2 mm 0 mps 752 mmHg 98%
    01:00 +23°C° 0.2 mm 0 mps 752 mmHg 98%
    02:00 +23°C° 0 mm 0 mps 752 mmHg 98%
    03:00 +23°C° 0 mm 0 mps 752 mmHg 98%
    04:00 +23°C° 0 mm 0 mps 751 mmHg 98%
    05:00 +24°C° 0.1 mm 0 mps 752 mmHg 97%
    06:00 +24°C° 0.1 mm 0 mps 752 mmHg 97%
    07:00 +24°C° 0.1 mm 0 mps 753 mmHg 97%
    08:00 +25°C° 0.1 mm 0 mps 753 mmHg 93%
    09:00 +28°C° 0.1 mm 1 mps 753 mmHg 89%
    10:00 +28°C° 0.1 mm 1 mps 754 mmHg 85%
    11:00 +29°C° 0.5 mm 1 mps 753 mmHg 83%
    12:00 +30°C° 0.5 mm 1 mps 752 mmHg 82%
    13:00 +30°C° 0.5 mm 1 mps 751 mmHg 80%
    14:00 +30°C° 1.1 mm 1 mps 751 mmHg 80%
    15:00 +30°C° 1.1 mm 1 mps 750 mmHg 81%
    16:00 +30°C° 1.1 mm 1 mps 750 mmHg 82%
    17:00 +29°C° 2 mm 1 mps 750 mmHg 86%
    18:00 +28°C° 2 mm 1 mps 751 mmHg 90%
    19:00 +25°C° 2 mm 0 mps 752 mmHg 95%
    20:00 +24°C° 0.7 mm 0 mps 752 mmHg 96%
    21:00 +24°C° 0.7 mm 0 mps 753 mmHg 96%
    22:00 +24°C° 0.7 mm 0 mps 753 mmHg 97%
    23:00 +24°C° 0 mm 0 mps 753 mmHg 98%

    Tomorrow, 15 December, Sunday

    Time Temperature Precipitation Wind Pressure Humidity
    00:00 +23°C° 0 mm 0 mps 752 mmHg 98%
    01:00 +23°C° 0 mm 0 mps 752 mmHg 99%
    02:00 +23°C° 0 mm 0 mps 752 mmHg 99%
    03:00 +23°C° 0 mm 0 mps 751 mmHg 99%
    04:00 +23°C° 0 mm 0 mps 751 mmHg 99%
    05:00 +23°C° 0 mm 0 mps 751 mmHg 98%
    06:00 +23°C° 0 mm 0 mps 752 mmHg 98%
    07:00 +23°C° 0 mm 0 mps 752 mmHg 97%
    08:00 +25°C° 0 mm 0 mps 753 mmHg 91%
    09:00 +26°C° 0 mm 0 mps 753 mmHg 84%
    10:00 +28°C° 0 mm 0 mps 753 mmHg 78%
    11:00 +29°C° 0.3 mm 0 mps 752 mmHg 74%
    12:00 +30°C° 0.3 mm 0 mps 751 mmHg 70%
    13:00 +31°C° 0.3 mm 0 mps 751 mmHg 66%
    14:00 +31°C° 0.3 mm 0 mps 750 mmHg 66%
    15:00 +32°C° 0.3 mm 1 mps 749 mmHg 66%
    16:00 +32°C° 0.3 mm 1 mps 749 mmHg 67%
    17:00 +31°C° 0.1 mm 1 mps 749 mmHg 72%
    18:00 +27°C° 0.1 mm 0 mps 750 mmHg 78%
    19:00 +26°C° 0.1 mm 0 mps 750 mmHg 83%
    20:00 +26°C° 0.1 mm 0 mps 751 mmHg 86%
    21:00 +25°C° 0.1 mm 0 mps 751 mmHg 88%
    22:00 +27°C° 0.1 mm 1 mps 752 mmHg 91%
    23:00 +26°C° 0.1 mm 1 mps 751 mmHg 93%

    Day after tomorrow, 16 December, Monday

    Time Temperature Precipitation Wind Pressure Humidity
    00:00 +26°C° 0.1 mm 1 mps 751 mmHg 95%
    01:00 +26°C° 0.1 mm 1 mps 751 mmHg 97%
    02:00 +26°C° 0 mm 1 mps 751 mmHg 97%
    03:00 +25°C° 0 mm 1 mps 750 mmHg 97%
    04:00 +23°C° 0 mm 0 mps 750 mmHg 97%
    05:00 +24°C° 0 mm 0 mps 750 mmHg 96%
    06:00 +24°C° 0 mm 0 mps 751 mmHg 96%
    07:00 +24°C° 0 mm 0 mps 751 mmHg 95%
    08:00 +25°C° 0 mm 0 mps 751 mmHg 88%
    09:00 +27°C° 0 mm 0 mps 751 mmHg 82%
    10:00 +28°C° 0 mm 0 mps 752 mmHg 75%
    11:00 +29°C° 0.1 mm 0 mps 751 mmHg 71%
    12:00 +30°C° 0.1 mm 0 mps 750 mmHg 67%
    13:00 +31°C° 0.1 mm 0 mps 749 mmHg 63%
    14:00 +31°C° 0 mm 0 mps 748 mmHg 61%
    15:00 +31°C° 0 mm 0 mps 748 mmHg 59%
    16:00 +32°C° 0 mm 0 mps 747 mmHg 58%
    17:00 +30°C° 0 mm 0 mps 748 mmHg 65%
    18:00 +28°C° 0 mm 0 mps 748 mmHg 73%
    19:00 +28°C° 0 mm 1 mps 749 mmHg 81%
    20:00 +28°C° 0.2 mm 1 mps 749 mmHg 85%
    21:00 +27°C° 0.2 mm 1 mps 749 mmHg 89%
    22:00 +27°C° 0.2 mm 1 mps 750 mmHg 93%
    23:00 +26°C° 0.3 mm 1 mps 750 mmHg 94%

    17 December, Tuesday

    Time Temperature Precipitation Wind Pressure Humidity
    00:00 +26°C° 0.3 mm 1 mps 750 mmHg 95%
    01:00 +26°C° 0.3 mm 1 mps 750 mmHg 97%
    02:00 +24°C° 0 mm 0 mps 749 mmHg 97%
    03:00 +24°C° 0 mm 0 mps 749 mmHg 97%
    04:00 +24°C° 0 mm 0 mps 749 mmHg 97%
    05:00 +24°C° 0 mm 0 mps 750 mmHg 96%
    06:00 +24°C° 0 mm 0 mps 750 mmHg 96%
    07:00 +24°C° 0 mm 0 mps 751 mmHg 96%
    08:00 +27°C° 0.1 mm 1 mps 751 mmHg 89%
    09:00 +29°C° 0.1 mm 1 mps 751 mmHg 83%
    10:00 +30°C° 0.1 mm 1 mps 751 mmHg 77%
    11:00 +31°C° 1.1 mm 1 mps 750 mmHg 76%
    12:00 +31°C° 1.1 mm 1 mps 750 mmHg 76%
    13:00 +32°C° 1.1 mm 1 mps 749 mmHg 76%
    14:00 +32°C° 0.5 mm 1 mps 749 mmHg 75%
    15:00 +32°C° 0.5 mm 1 mps 748 mmHg 74%
    16:00 +32°C° 0.5 mm 1 mps 748 mmHg 74%
    17:00 +30°C° 1.2 mm 1 mps 749 mmHg 80%
    18:00 +28°C° 1.2 mm 1 mps 749 mmHg 87%
    19:00 +27°C° 1.2 mm 2 mps 750 mmHg 94%
    20:00 +27°C° 0.7 mm 1 mps 750 mmHg 95%
    21:00 +26°C° 0.7 mm 1 mps 751 mmHg 95%
    22:00 +26°C° 0.7 mm 1 mps 751 mmHg 96%
    23:00 +26°C° 0.1 mm 1 mps 751 mmHg 97%

    18 December, Wednesday

    Time Temperature Precipitation Wind Pressure Humidity
    00:00 +26°C° 0.1 mm 1 mps 751 mmHg 97%
    01:00 +23°C° 0.1 mm 0 mps 751 mmHg 98%
    02:00 +23°C° 0 mm 0 mps 750 mmHg 98%
    03:00 +23°C° 0 mm 0 mps 750 mmHg 98%
    04:00 +23°C° 0 mm 0 mps 750 mmHg 98%
    05:00 +23°C° 0 mm 0 mps 750 mmHg 98%
    06:00 +23°C° 0 mm 0 mps 751 mmHg 97%
    07:00 +23°C° 0 mm 0 mps 751 mmHg 97%
    08:00 +25°C° 0.1 mm 0 mps 751 mmHg 90%
    09:00 +28°C° 0.1 mm 1 mps 752 mmHg 84%
    10:00 +30°C° 0.1 mm 1 mps 752 mmHg 78%
    11:00 +30°C° 0.9 mm 1 mps 751 mmHg 78%
    12:00 +30°C° 0.9 mm 1 mps 750 mmHg 78%
    13:00 +31°C° 0.9 mm 1 mps 750 mmHg 79%
    14:00 +31°C° 1.4 mm 1 mps 749 mmHg 79%
    15:00 +31°C° 1.4 mm 1 mps 749 mmHg 79%
    16:00 +30°C° 1.4 mm 2 mps 749 mmHg 78%
    17:00 +29°C° 0.7 mm 1 mps 749 mmHg 83%
    18:00 +28°C° 0.7 mm 1 mps 750 mmHg 88%
    19:00 +27°C° 0.7 mm 1 mps 751 mmHg 93%
    20:00 +26°C° 0.2 mm 1 mps 751 mmHg 94%
    21:00 +26°C° 0.2 mm 1 mps 752 mmHg 94%
    22:00 +24°C° 0.2 mm 0 mps 752 mmHg 95%
    23:00 +24°C° 0.4 mm 0 mps 752 mmHg 95%

    19 December, Thursday

    Time Temperature Precipitation Wind Pressure Humidity
    00:00 +24°C° 0.4 mm 0 mps 752 mmHg 96%
    01:00 +24°C° 0.4 mm 0 mps 752 mmHg 97%
    02:00 +24°C° 0.3 mm 0 mps 751 mmHg 97%
    03:00 +23°C° 0.3 mm 0 mps 751 mmHg 98%
    04:00 +23°C° 0.3 mm 0 mps 750 mmHg 98%
    05:00 +23°C° 0 mm 0 mps 751 mmHg 98%
    06:00 +23°C° 0 mm 0 mps 751 mmHg 97%
    07:00 +23°C° 0 mm 0 mps 751 mmHg 97%
    08:00 +25°C° 0 mm 0 mps 751 mmHg 90%
    09:00 +27°C° 0 mm 0 mps 752 mmHg 82%
    10:00 +29°C° 0 mm 0 mps 752 mmHg 74%
    11:00 +32°C° 0 mm 1 mps 751 mmHg 69%
    12:00 +33°C° 0 mm 1 mps 750 mmHg 63%
    13:00 +34°C° 0 mm 1 mps 750 mmHg 57%
    14:00 +34°C° 0.6 mm 2 mps 749 mmHg 62%
    15:00 +32°C° 0.6 mm 2 mps 749 mmHg 67%
    16:00 +32°C° 0.6 mm 2 mps 748 mmHg 71%
    17:00 +30°C° 1.3 mm 2 mps 749 mmHg 78%
    18:00 +28°C° 1.3 mm 1 mps 749 mmHg 86%
    19:00 +27°C° 1.3 mm 1 mps 750 mmHg 93%
    20:00 +27°C° 2.3 mm 1 mps 751 mmHg 93%
    21:00 +26°C° 2.3 mm 1 mps 752 mmHg 94%
    22:00 +26°C° 2.3 mm 1 mps 752 mmHg 94%
    23:00 +26°C° 1.6 mm 1 mps 752 mmHg 94%
    Show more